Weather History for Anaktuvuk Pass, AK

Change the Weather History Date:

Monday, January 2, 2012

  Actual Average Record
Temperature  
Mean Temperature -20 °F -  
Max Temperature -18 °F -5 °F 30 °F (2005)
Min Temperature -22 °F -16 °F -31 °F (2009)
Degree Days  
Heating Degree Days 85    
Moisture  
Dew Point -29 °F    
Average Humidity 61    
Maximum Humidity 100    
Minimum Humidity 58    
Precipitation  
Precipitation 0.00 in - - ()
Sea Level Pressure  
Sea Level Pressure 29.30 in    
Wind  
Wind Speed - (North)    
Max Wind Speed -    
Max Gust Speed -    
Visibility 3 miles    
Events      
Averages and records for this station are not official NWS values.
T = Trace of Precipitation, MM = Missing Value Source: NWS Daily Summary

Daily Weather History Graph

Daily Weather History Graph

Search for Another Location

Airport:

Trip Planner

Search our weather history database for the weather conditions in past years. The results will help you decide how hot, cold, wet, or windy it might be!

Date:

Astronomy

Jan. 02, 2012 Rise Set
Actual Time 12:38 PM AKST 1:43 PM AKST
Civil Twilight 10:24 AM AKST 3:57 PM AKST
Nautical Twilight 8:57 AM AKST 5:25 PM AKST
Astronomical Twilight 7:46 AM AKST 6:36 PM AKST
Moon 11:21 AM AKST (1/2) 4:16 AM AKST (1/2)
Length of Visible Light 5h 32m
Length of Day
1h 04m
Waxing Gibbous, 65% of the Moon is Illuminated
Jan 2
Waxing Gibbous
Jan 8
Full
Jan 16
Last Quarter
Jan 22
New
Jan 30
First Quarter

Hourly Weather History & Observations

Time (AKST) Temp. Dew Point Humidity Pressure Visibility Wind Dir Wind Speed Gust Speed Precip Events Conditions
12:16 AM -20.2 °F - N/A% 29.32 in 1.2 mi North - - N/A   Overcast
12:36 AM -22.0 °F - N/A% 29.32 in 1.5 mi North - - N/A   Overcast
12:56 AM -22.0 °F - N/A% 29.31 in 1.2 mi North - - N/A   Overcast
1:16 AM -22.0 °F - N/A% 29.31 in 1.2 mi North - - N/A   Overcast
1:36 AM -20.2 °F - N/A% 29.30 in 1.2 mi North - - N/A   Overcast
1:56 AM -22.0 °F - N/A% 29.30 in 1.2 mi North - - N/A   Overcast
2:16 AM -20.2 °F - N/A% 29.30 in 1.2 mi North - - N/A   Overcast
2:36 AM -18.4 °F -27.4 °F 63% 29.30 in 1.2 mi North - - N/A   Overcast
2:56 AM -18.4 °F -27.4 °F 63% 29.30 in 1.5 mi North - - N/A   Overcast
3:16 AM -20.2 °F - N/A% 29.30 in 2.5 mi North - - N/A   Overcast
3:56 AM -20.2 °F -29.2 °F 63% 29.29 in 10.0 mi North - - N/A   Overcast
4:16 AM -18.4 °F -29.2 °F 58% 29.28 in 5.0 mi North - - N/A   Overcast
4:36 AM -18.4 °F -29.2 °F 58% 29.27 in 2.5 mi North - - N/A   Overcast
4:56 AM -18.4 °F -27.4 °F 63% 29.27 in 2.0 mi North - - N/A   Overcast
5:16 AM -18.4 °F -29.2 °F 58% 29.27 in 1.8 mi North - - N/A   Overcast
5:36 AM -18.4 °F -29.2 °F 58% 29.26 in 1.5 mi North - - N/A   Overcast
5:56 AM -18.4 °F -29.2 °F 58% 29.26 in 1.5 mi North - - N/A   Overcast
6:16 AM -18.4 °F -29.2 °F 58% 29.26 in 1.5 mi North - - N/A   Overcast
6:36 AM -18.4 °F -29.2 °F 58% 29.25 in 1.5 mi North - - N/A   Overcast
6:56 AM -18.4 °F -29.2 °F 58% 29.25 in 1.5 mi North - - N/A   Overcast
7:16 AM -20.2 °F -27.4 °F 69% 29.25 in 1.5 mi North - - N/A   Overcast
7:36 AM -20.2 °F -29.2 °F 63% 29.25 in 1.0 mi North - - N/A   Overcast
7:56 AM -20.2 °F -29.2 °F 63% 29.26 in 1.8 mi North - - N/A   Overcast
8:16 AM -20.2 °F -20.2 °F 100% 29.26 in 2.0 mi North - - N/A   Overcast
8:36 AM -20.2 °F -29.2 °F 63% 29.26 in 2.0 mi North - - N/A   Overcast
8:56 AM -20.2 °F -29.2 °F 63% 29.25 in 2.5 mi North - - N/A   Overcast
9:16 AM -20.2 °F -29.2 °F 63% 29.26 in 2.5 mi North - - N/A   Overcast
9:36 AM -20.2 °F - N/A% 29.27 in 3.0 mi North - - N/A   Overcast
9:56 AM -20.2 °F -29.2 °F 63% 29.27 in 3.0 mi North - - N/A   Overcast
10:16 AM -20.2 °F -29.2 °F 63% 29.27 in 3.0 mi North - - N/A   Overcast
10:36 AM -20.2 °F - N/A% 29.28 in 3.0 mi North - - N/A   Overcast
10:56 AM -20.2 °F -29.2 °F 63% 29.28 in 3.0 mi North - - N/A   Overcast
11:16 AM -20.2 °F -29.2 °F 63% 29.29 in 5.0 mi North - - N/A   Overcast
11:36 AM -20.2 °F -29.2 °F 63% 29.29 in 3.0 mi North - - N/A   Overcast
11:56 AM -20.2 °F - N/A% 29.29 in 2.5 mi North - - N/A   Overcast
12:16 PM -20.2 °F -29.2 °F 63% 29.29 in 3.0 mi North - - N/A   Overcast
12:36 PM -20.2 °F -29.2 °F 63% 29.30 in 2.5 mi North - - N/A   Overcast
12:56 PM -18.4 °F -29.2 °F 58% 29.30 in 4.0 mi North - - N/A   Overcast
1:16 PM -18.4 °F -29.2 °F 58% 29.31 in 2.5 mi North - - N/A   Overcast
1:36 PM -18.4 °F -29.2 °F 58% 29.31 in 3.0 mi North - - N/A   Overcast
1:56 PM -18.4 °F -29.2 °F 58% 29.32 in 2.5 mi North - - N/A   Overcast
2:16 PM -18.4 °F -29.2 °F 58% 29.32 in 2.0 mi North - - N/A   Overcast
2:36 PM -18.4 °F -29.2 °F 58% 29.33 in 1.8 mi North - - N/A   Overcast
2:56 PM -18.4 °F -29.2 °F 58% 29.32 in 1.2 mi North - - N/A   Overcast
3:16 PM -18.4 °F -29.2 °F 58% 29.32 in 2.0 mi North - - N/A   Overcast
3:36 PM -18.4 °F -29.2 °F 58% 29.33 in 3.0 mi North - - N/A   Overcast
3:56 PM -18.4 °F -29.2 °F 58% 29.34 in 4.0 mi North - - N/A   Overcast
4:16 PM -18.4 °F -29.2 °F 58% 29.34 in 5.0 mi North - - N/A   Overcast
4:36 PM -18.4 °F -29.2 °F 58% 29.34 in 7.0 mi North - - N/A   Overcast
4:56 PM -18.4 °F -29.2 °F 58% 29.35 in 3.0 mi North - - N/A   Overcast
5:16 PM -18.4 °F -29.2 °F 58% 29.36 in 3.0 mi North - - N/A   Overcast
5:36 PM -18.4 °F -29.2 °F 58% 29.36 in 4.0 mi North - - N/A   Overcast
5:56 PM -18.4 °F -29.2 °F 58% 29.36 in 4.0 mi North - - N/A   Overcast
6:16 PM -18.4 °F -29.2 °F 58% 29.36 in 5.0 mi North - - N/A   Overcast
6:36 PM -18.4 °F -29.2 °F 58% 29.37 in 5.0 mi North - - N/A   Overcast
6:56 PM -18.4 °F -29.2 °F 58% 29.37 in 5.0 mi North - - N/A   Overcast
7:16 PM -18.4 °F -29.2 °F 58% 29.38 in 5.0 mi North - - N/A   Overcast
7:36 PM -18.4 °F -29.2 °F 58% 29.38 in 3.0 mi North - - N/A   Overcast
7:56 PM -18.4 °F -29.2 °F 58% 29.39 in 3.0 mi North - - N/A   Overcast
8:16 PM -18.4 °F -29.2 °F 58% 29.39 in 3.0 mi North - - N/A   Overcast
8:36 PM -18.4 °F -29.2 °F 58% 29.40 in 4.0 mi North - - N/A   Overcast
8:56 PM -18.4 °F -29.2 °F 58% 29.40 in 4.0 mi North - - N/A   Overcast
9:16 PM -18.4 °F -29.2 °F 58% 29.41 in 4.0 mi North - - N/A   Overcast
9:36 PM -18.4 °F -29.2 °F 58% 29.42 in 2.5 mi North - - N/A   Overcast
9:56 PM -18.4 °F -29.2 °F 58% 29.43 in 10.0 mi North - - N/A   Overcast
10:16 PM -18.4 °F -27.4 °F 63% 29.43 in 5.0 mi North - - N/A   Overcast
10:36 PM -18.4 °F -27.4 °F 63% 29.44 in 6.0 mi North - - N/A   Overcast
10:56 PM -18.4 °F -27.4 °F 63% 29.44 in 7.0 mi North - - N/A   Overcast
11:16 PM -18.4 °F -27.4 °F 63% 29.45 in 7.0 mi North - - N/A   Overcast
11:36 PM -18.4 °F -27.4 °F 63% 29.45 in 6.0 mi North - - N/A   Overcast
11:56 PM -18.4 °F -27.4 °F 63% 29.46 in 7.0 mi North - - N/A   Overcast